Multibeam Report for RR1014


Ship Name: Roger Revelle
Chief Scientist: Ohmart, Mike
University of Washington
Source Organization: Rolling Deck to Repository
Start Date: 2010-10-12
End Date: 2010-10-24


View ISO Metadata

Visit the full NCEI Bathymetry Viewer


Multibeam Bathymetry

Cruise Details

Project: Impact of Typhoons on the Western Pacific Ocean
Instrument: Kongsberg EM122

Data Quality

Number of Files: 136
Number of Records: 66982
BATHYMETRY DATA Quantity Percentage
Number of Beams 28936224 100%
Number of Good Beams 26492678 91.56%
Number of Zero Beams 0 0%
Number of Flagged Beams 2443546 8.44%
AMPLITUDE DATA Quantity Percentage
Number of Beams 28936224 100%
Number of Good Beams 26492678 91.56%
Number of Zero Beams 0 0%
Number of Flagged Beams 2443546 8.44%
SIDESCAN DATA Quantity Percentage
Number of Pixels 68589568 100%
Number of Good Pixels 38738942 56.48%
Number of Zero Pixels 0 0%
Number of Flagged Pixels 29850626 43.52%

Navigation Totals

Total Time: 261.188 hours
Total Track Length: 3774.1864 km
Average Speed: 14.45 km/hr (7.8024 knots)

Cruise Bounds

Northern Extent: 25.91834
Southern Extent: 14.773934
Western Extent: 121.24341
Eastern Extent: 129.3214

Limits

Minimum Sonar Depth 2.3423 Maximum Sonar Depth 8.5728
Minimum Altitude 330.293 Maximum Altitude 9210.543
Minimum Depth 334.0182 Maximum Depth 9217.2168
Minimum Amplitude 0 Maximum Amplitude 2.1
Minimum Sidescan 0 Maximum Sidescan 3.06

File Information

Full Resolution Bathymetry as collected (raw): 132

Files File Size Description
0000_20101012_093324_RV_Revelle.all.mb58.gz 122.21MB Kongsberg multibeam vendor format
0001_20101012_113326_RV_Revelle.all.mb58.gz 82.62MB Kongsberg multibeam vendor format
0002_20101012_133325_RV_Revelle.all.mb58.gz 66.47MB Kongsberg multibeam vendor format
0003_20101012_153327_RV_Revelle.all.mb58.gz 33.66MB Kongsberg multibeam vendor format
0004_20101012_173337_RV_Revelle.all.mb58.gz 34.09MB Kongsberg multibeam vendor format
0005_20101012_193335_RV_Revelle.all.mb58.gz 36.36MB Kongsberg multibeam vendor format
0006_20101012_213339_RV_Revelle.all.mb58.gz 36.83MB Kongsberg multibeam vendor format
0007_20101012_233333_RV_Revelle.all.mb58.gz 37.33MB Kongsberg multibeam vendor format
0008_20101013_013338_RV_Revelle.all.mb58.gz 37.44MB Kongsberg multibeam vendor format
0009_20101013_033339_RV_Revelle.all.mb58.gz 36.91MB Kongsberg multibeam vendor format
0010_20101013_053330_RV_Revelle.all.mb58.gz 38.46MB Kongsberg multibeam vendor format
0011_20101013_073338_RV_Revelle.all.mb58.gz 36.91MB Kongsberg multibeam vendor format
0012_20101013_093340_RV_Revelle.all.mb58.gz 38.05MB Kongsberg multibeam vendor format
0013_20101013_113333_RV_Revelle.all.mb58.gz 38.33MB Kongsberg multibeam vendor format
0014_20101013_133328_RV_Revelle.all.mb58.gz 37.74MB Kongsberg multibeam vendor format
0015_20101013_153339_RV_Revelle.all.mb58.gz 38.19MB Kongsberg multibeam vendor format
0016_20101013_173335_RV_Revelle.all.mb58.gz 36.13MB Kongsberg multibeam vendor format
0017_20101013_193329_RV_Revelle.all.mb58.gz 38.20MB Kongsberg multibeam vendor format
0018_20101013_213325_RV_Revelle.all.mb58.gz 26.56MB Kongsberg multibeam vendor format
0019_20101013_235705_RV_Revelle.all.mb58.gz 41.89MB Kongsberg multibeam vendor format
0020_20101014_015712_RV_Revelle.all.mb58.gz 37.78MB Kongsberg multibeam vendor format
0021_20101014_035718_RV_Revelle.all.mb58.gz 37.88MB Kongsberg multibeam vendor format
0022_20101014_055708_RV_Revelle.all.mb58.gz 37.71MB Kongsberg multibeam vendor format
0023_20101014_075713_RV_Revelle.all.mb58.gz 37.82MB Kongsberg multibeam vendor format
0024_20101014_095714_RV_Revelle.all.mb58.gz 37.65MB Kongsberg multibeam vendor format
0025_20101014_115714_RV_Revelle.all.mb58.gz 38.04MB Kongsberg multibeam vendor format
0026_20101014_135714_RV_Revelle.all.mb58.gz 37.63MB Kongsberg multibeam vendor format
0027_20101014_155709_RV_Revelle.all.mb58.gz 37.12MB Kongsberg multibeam vendor format
0028_20101014_175708_RV_Revelle.all.mb58.gz 37.11MB Kongsberg multibeam vendor format
0029_20101014_195709_RV_Revelle.all.mb58.gz 37.25MB Kongsberg multibeam vendor format
0030_20101014_215716_RV_Revelle.all.mb58.gz 37.12MB Kongsberg multibeam vendor format
0031_20101014_235714_RV_Revelle.all.mb58.gz 36.76MB Kongsberg multibeam vendor format
0032_20101015_015706_RV_Revelle.all.mb58.gz 37.20MB Kongsberg multibeam vendor format
0033_20101015_035717_RV_Revelle.all.mb58.gz 37.78MB Kongsberg multibeam vendor format
0034_20101015_055708_RV_Revelle.all.mb58.gz 38.52MB Kongsberg multibeam vendor format
0035_20101015_075717_RV_Revelle.all.mb58.gz 33.17MB Kongsberg multibeam vendor format
0036_20101015_095714_RV_Revelle.all.mb58.gz 35.56MB Kongsberg multibeam vendor format
0037_20101015_115719_RV_Revelle.all.mb58.gz 40.10MB Kongsberg multibeam vendor format
0038_20101015_135720_RV_Revelle.all.mb58.gz 36.94MB Kongsberg multibeam vendor format
0039_20101015_155717_RV_Revelle.all.mb58.gz 37.63MB Kongsberg multibeam vendor format
0040_20101015_175716_RV_Revelle.all.mb58.gz 37.69MB Kongsberg multibeam vendor format
0041_20101015_195711_RV_Revelle.all.mb58.gz 37.95MB Kongsberg multibeam vendor format
0042_20101015_215723_RV_Revelle.all.mb58.gz 36.49MB Kongsberg multibeam vendor format
0043_20101015_235717_RV_Revelle.all.mb58.gz 37.46MB Kongsberg multibeam vendor format
0044_20101016_015715_RV_Revelle.all.mb58.gz 38.13MB Kongsberg multibeam vendor format
0045_20101016_035722_RV_Revelle.all.mb58.gz 36.68MB Kongsberg multibeam vendor format
0046_20101016_055711_RV_Revelle.all.mb58.gz 39.14MB Kongsberg multibeam vendor format
0047_20101016_075710_RV_Revelle.all.mb58.gz 38.35MB Kongsberg multibeam vendor format
0048_20101016_095716_RV_Revelle.all.mb58.gz 37.60MB Kongsberg multibeam vendor format
0049_20101016_115713_RV_Revelle.all.mb58.gz 37.96MB Kongsberg multibeam vendor format
0050_20101016_135721_RV_Revelle.all.mb58.gz 37.90MB Kongsberg multibeam vendor format
0051_20101016_155709_RV_Revelle.all.mb58.gz 37.70MB Kongsberg multibeam vendor format
0052_20101016_175712_RV_Revelle.all.mb58.gz 38.20MB Kongsberg multibeam vendor format
0053_20101016_195716_RV_Revelle.all.mb58.gz 37.10MB Kongsberg multibeam vendor format
0054_20101016_215713_RV_Revelle.all.mb58.gz 37.68MB Kongsberg multibeam vendor format
0055_20101016_235710_RV_Revelle.all.mb58.gz 37.84MB Kongsberg multibeam vendor format
0056_20101017_015708_RV_Revelle.all.mb58.gz 37.38MB Kongsberg multibeam vendor format
0057_20101017_035710_RV_Revelle.all.mb58.gz 37.07MB Kongsberg multibeam vendor format
0058_20101017_055711_RV_Revelle.all.mb58.gz 36.65MB Kongsberg multibeam vendor format
0059_20101017_075721_RV_Revelle.all.mb58.gz 37.02MB Kongsberg multibeam vendor format
0060_20101017_095712_RV_Revelle.all.mb58.gz 37.09MB Kongsberg multibeam vendor format
0061_20101017_115717_RV_Revelle.all.mb58.gz 38.38MB Kongsberg multibeam vendor format
0062_20101017_135712_RV_Revelle.all.mb58.gz 35.44MB Kongsberg multibeam vendor format
0063_20101017_155709_RV_Revelle.all.mb58.gz 36.41MB Kongsberg multibeam vendor format
0064_20101017_175716_RV_Revelle.all.mb58.gz 34.45MB Kongsberg multibeam vendor format
0065_20101017_195710_RV_Revelle.all.mb58.gz 34.59MB Kongsberg multibeam vendor format
0066_20101017_215718_RV_Revelle.all.mb58.gz 34.47MB Kongsberg multibeam vendor format
0067_20101017_235713_RV_Revelle.all.mb58.gz 37.16MB Kongsberg multibeam vendor format
0068_20101018_015715_RV_Revelle.all.mb58.gz 35.67MB Kongsberg multibeam vendor format
0069_20101018_035709_RV_Revelle.all.mb58.gz 37.11MB Kongsberg multibeam vendor format
0070_20101018_055718_RV_Revelle.all.mb58.gz 15.78MB Kongsberg multibeam vendor format
0071_20101018_072902_RV_Revelle.all.mb58.gz 24.26MB Kongsberg multibeam vendor format
0072_20101018_092902_RV_Revelle.all.mb58.gz 39.10MB Kongsberg multibeam vendor format
0073_20101018_112858_RV_Revelle.all.mb58.gz 38.52MB Kongsberg multibeam vendor format
0074_20101018_132907_RV_Revelle.all.mb58.gz 37.56MB Kongsberg multibeam vendor format
0075_20101018_152859_RV_Revelle.all.mb58.gz 38.42MB Kongsberg multibeam vendor format
0076_20101018_172858_RV_Revelle.all.mb58.gz 37.69MB Kongsberg multibeam vendor format
0077_20101018_192907_RV_Revelle.all.mb58.gz 35.26MB Kongsberg multibeam vendor format
0078_20101018_212906_RV_Revelle.all.mb58.gz 33.99MB Kongsberg multibeam vendor format
0079_20101018_232908_RV_Revelle.all.mb58.gz 37.25MB Kongsberg multibeam vendor format
0080_20101019_012902_RV_Revelle.all.mb58.gz 35.73MB Kongsberg multibeam vendor format
0081_20101019_032909_RV_Revelle.all.mb58.gz 38.09MB Kongsberg multibeam vendor format
0082_20101019_052903_RV_Revelle.all.mb58.gz 37.45MB Kongsberg multibeam vendor format
0083_20101019_072911_RV_Revelle.all.mb58.gz 37.59MB Kongsberg multibeam vendor format
0084_20101019_092906_RV_Revelle.all.mb58.gz 35.92MB Kongsberg multibeam vendor format
0085_20101019_112911_RV_Revelle.all.mb58.gz 35.40MB Kongsberg multibeam vendor format
0086_20101019_132905_RV_Revelle.all.mb58.gz 36.81MB Kongsberg multibeam vendor format
0087_20101019_152912_RV_Revelle.all.mb58.gz 35.17MB Kongsberg multibeam vendor format
0088_20101019_172911_RV_Revelle.all.mb58.gz 38.42MB Kongsberg multibeam vendor format
0089_20101019_192900_RV_Revelle.all.mb58.gz 37.40MB Kongsberg multibeam vendor format
0090_20101019_212859_RV_Revelle.all.mb58.gz 37.93MB Kongsberg multibeam vendor format
0091_20101019_232904_RV_Revelle.all.mb58.gz 36.92MB Kongsberg multibeam vendor format
0092_20101020_012913_RV_Revelle.all.mb58.gz 35.95MB Kongsberg multibeam vendor format
0093_20101020_032908_RV_Revelle.all.mb58.gz 37.97MB Kongsberg multibeam vendor format
0094_20101020_052858_RV_Revelle.all.mb58.gz 37.01MB Kongsberg multibeam vendor format
0095_20101020_072906_RV_Revelle.all.mb58.gz 37.45MB Kongsberg multibeam vendor format
0096_20101020_092901_RV_Revelle.all.mb58.gz 37.78MB Kongsberg multibeam vendor format
0097_20101020_112857_RV_Revelle.all.mb58.gz 36.64MB Kongsberg multibeam vendor format
0098_20101020_132857_RV_Revelle.all.mb58.gz 37.61MB Kongsberg multibeam vendor format
0099_20101020_152907_RV_Revelle.all.mb58.gz 37.55MB Kongsberg multibeam vendor format
0100_20101020_172907_RV_Revelle.all.mb58.gz 37.52MB Kongsberg multibeam vendor format
0101_20101020_192903_RV_Revelle.all.mb58.gz 38.32MB Kongsberg multibeam vendor format
0102_20101020_212901_RV_Revelle.all.mb58.gz 38.13MB Kongsberg multibeam vendor format
0103_20101020_232858_RV_Revelle.all.mb58.gz 37.47MB Kongsberg multibeam vendor format
0104_20101021_012902_RV_Revelle.all.mb58.gz 37.97MB Kongsberg multibeam vendor format
0105_20101021_032903_RV_Revelle.all.mb58.gz 37.50MB Kongsberg multibeam vendor format
0106_20101021_052902_RV_Revelle.all.mb58.gz 37.61MB Kongsberg multibeam vendor format
0107_20101021_072900_RV_Revelle.all.mb58.gz 36.14MB Kongsberg multibeam vendor format
0108_20101021_092901_RV_Revelle.all.mb58.gz 36.04MB Kongsberg multibeam vendor format
0109_20101021_112900_RV_Revelle.all.mb58.gz 38.91MB Kongsberg multibeam vendor format
0110_20101021_132907_RV_Revelle.all.mb58.gz 37.59MB Kongsberg multibeam vendor format
0111_20101021_152903_RV_Revelle.all.mb58.gz 37.06MB Kongsberg multibeam vendor format
0112_20101021_172911_RV_Revelle.all.mb58.gz 37.72MB Kongsberg multibeam vendor format
0113_20101021_192901_RV_Revelle.all.mb58.gz 36.71MB Kongsberg multibeam vendor format
0114_20101021_212904_RV_Revelle.all.mb58.gz 36.21MB Kongsberg multibeam vendor format
0115_20101021_232856_RV_Revelle.all.mb58.gz 34.95MB Kongsberg multibeam vendor format
0116_20101022_012908_RV_Revelle.all.mb58.gz 35.37MB Kongsberg multibeam vendor format
0117_20101022_032908_RV_Revelle.all.mb58.gz 35.55MB Kongsberg multibeam vendor format
0118_20101022_052913_RV_Revelle.all.mb58.gz 36.66MB Kongsberg multibeam vendor format
0119_20101022_072905_RV_Revelle.all.mb58.gz 36.71MB Kongsberg multibeam vendor format
0120_20101022_092904_RV_Revelle.all.mb58.gz 37.48MB Kongsberg multibeam vendor format
0121_20101022_112901_RV_Revelle.all.mb58.gz 37.17MB Kongsberg multibeam vendor format
0122_20101022_132906_RV_Revelle.all.mb58.gz 37.27MB Kongsberg multibeam vendor format
0123_20101022_152911_RV_Revelle.all.mb58.gz 36.98MB Kongsberg multibeam vendor format
0124_20101022_172913_RV_Revelle.all.mb58.gz 36.73MB Kongsberg multibeam vendor format
0125_20101022_192906_RV_Revelle.all.mb58.gz 36.78MB Kongsberg multibeam vendor format
0126_20101022_212904_RV_Revelle.all.mb58.gz 38.34MB Kongsberg multibeam vendor format
0127_20101022_232859_RV_Revelle.all.mb58.gz 49.86MB Kongsberg multibeam vendor format
0128_20101023_012911_RV_Revelle.all.mb58.gz 49.99MB Kongsberg multibeam vendor format
0129_20101023_032910_RV_Revelle.all.mb58.gz 64.93MB Kongsberg multibeam vendor format
0130_20101023_052901_RV_Revelle.all.mb58.gz 84.60MB Kongsberg multibeam vendor format
0131_20101023_072901_RV_Revelle.all.mb58.gz 57.22MB Kongsberg multibeam vendor format

Metadata Files: 3

Files File Size Description
RR1014_Multibeam.xml NGDC created ISO metadata
em122_bag_info.tar.gz 6.5KB Additional cruise information
xbt_bag_info.tar.gz 2.1KB Additional cruise information

Ancillary Files: 1

Files File Size Description
xbt.tar.gz 368.1KB Expendable Bathythermograph (XBT) data